| time (UTC) | temp C | wind direction | speed KPH | gust KPH | rain 1hr cm | rain 24hr cm | rain mn cm | humidity % | barometer mb |
| 20260506044529 | 12 | 87 | 0.0 | 4.8 | 0.00 | 0.76 | 0.48 | 69 | 1013.1 |
| 20260506043028 | 12 | 149 | 0.0 | 3.2 | 0.00 | 0.76 | 0.48 | 70 | 1013.1 |
| 20260506041525 | 12 | 131 | 0.0 | 8.0 | 0.00 | 0.76 | 0.48 | 68 | 1012.9 |
| 20260506040024 | 12 | 134 | 0.0 | 11.3 | 0.00 | 0.76 | 0.48 | 68 | 1012.8 |
| 20260506034523 | 12 | 137 | 1.6 | 9.7 | 0.00 | 0.79 | 0.48 | 67 | 1012.7 |
| 20260506033119 | 13 | 129 | 0.0 | 4.8 | 0.00 | 0.79 | 0.48 | 65 | 1012.3 |
| 20260506031517 | 13 | 114 | 0.0 | 0.0 | 0.00 | 0.79 | 0.48 | 65 | 1011.9 |
| 20260506030015 | 13 | 115 | 0.0 | 0.0 | 0.00 | 0.79 | 0.48 | 62 | 1011.8 |
| 20260506024514 | 15 | 184 | 0.0 | 1.6 | 0.00 | 0.79 | 0.48 | 61 | 1011.6 |
| 20260506023012 | 16 | 190 | 0.0 | 1.6 | 0.00 | 0.79 | 0.48 | 57 | 1011.4 |
| 20260506021511 | 17 | 172 | 0.0 | 6.4 | 0.00 | 0.79 | 0.48 | 52 | 1011.2 |
| 20260506020013 | 18 | 270 | 1.6 | 6.4 | 0.00 | 0.86 | 0.48 | 46 | 1011.1 |
| 20260506014508 | 18 | 182 | 1.6 | 6.4 | 0.00 | 0.86 | 0.48 | 47 | 1011.0 |
| 20260506013006 | 18 | 183 | 1.6 | 8.0 | 0.00 | 0.86 | 0.48 | 46 | 1011.1 |
| 20260506011502 | 18 | 172 | 1.6 | 6.4 | 0.00 | 0.86 | 0.48 | 46 | 1011.1 |
| 20260506010104 | 18 | 235 | 3.2 | 11.3 | 0.00 | 0.86 | 0.48 | 47 | 1011.1 |
| 20260506004556 | 18 | 249 | 3.2 | 0.0 | 0.00 | 0.00 | 0.48 | 46 | 1011.1 |
| 20260506003054 | 18 | 149 | 1.6 | 8.0 | 0.00 | 0.94 | 0.48 | 47 | 1011.1 |
| 20260506001602 | 18 | 299 | 3.2 | 11.3 | 0.00 | 0.94 | 0.48 | 47 | 1011.2 |
| 20260506000109 | 18 | 169 | 3.2 | 8.0 | 0.00 | 0.94 | 0.48 | 49 | 1011.2 |
| 20260505234546 | 18 | 183 | 3.2 | 11.3 | 0.00 | 0.94 | 0.48 | 48 | 1011.2 |
| 20260505233048 | 18 | 263 | 1.6 | 9.7 | 0.00 | 0.94 | 0.48 | 50 | 1011.3 |
| 20260505231545 | 17 | 283 | 4.8 | 9.7 | 0.00 | 0.94 | 0.48 | 51 | 1011.6 |
| 20260505230043 | 16 | 205 | 1.6 | 8.0 | 0.00 | 0.94 | 0.48 | 57 | 1011.7 |
| 20260505224541 | 16 | 261 | 4.8 | 11.3 | 0.00 | 0.94 | 0.48 | 57 | 1011.9 |
| 20260505223036 | 16 | 326 | 1.6 | 12.9 | 0.00 | 0.94 | 0.48 | 59 | 1012.0 |
| 20260505221525 | 16 | 230 | 1.6 | 8.0 | 0.00 | 0.94 | 0.48 | 58 | 1011.9 |
| 20260505220021 | 15 | 126 | 1.6 | 8.0 | 0.00 | 0.94 | 0.48 | 59 | 1012.1 |
| 20260505214519 | 15 | 252 | 1.6 | 12.9 | 0.00 | 0.94 | 0.48 | 63 | 1012.2 |
| 20260505213016 | 15 | 121 | 1.6 | 9.7 | 0.00 | 0.94 | 0.48 | 66 | 1012.4 |
| 20260505211516 | 14 | 158 | 3.2 | 9.7 | 0.00 | 0.94 | 0.48 | 68 | 1012.6 |
| 20260505210008 | 13 | 262 | 1.6 | 12.9 | 0.00 | 0.94 | 0.48 | 68 | 1012.7 |
| 20260505204506 | 13 | 203 | 1.6 | 8.0 | 0.00 | 0.94 | 0.48 | 65 | 1012.8 |
| 20260505203059 | 12 | 132 | 0.0 | 6.4 | 0.00 | 0.94 | 0.48 | 72 | 1012.9 |
| 20260505201554 | 12 | 101 | 3.2 | 9.7 | 0.00 | 0.94 | 0.48 | 72 | 1012.9 |
| 20260505200052 | 12 | 271 | 3.2 | 9.7 | 0.00 | 0.94 | 0.48 | 72 | 1013.2 |
| 20260505194543 | 11 | 100 | 3.2 | 8.0 | 0.00 | 1.07 | 0.48 | 73 | 1013.3 |
| 20260505193040 | 11 | 146 | 3.2 | 8.0 | 0.00 | 1.07 | 0.48 | 73 | 1013.1 |
| 20260505191538 | 11 | 226 | 3.2 | 8.0 | 0.00 | 1.07 | 0.48 | 75 | 1013.2 |
| 20260505190036 | 11 | 198 | 1.6 | 8.0 | 0.00 | 1.07 | 0.48 | 76 | 1013.1 |
| 20260505184628 | 10 | 164 | 0.0 | 4.8 | 0.00 | 1.07 | 0.48 | 77 | 1013.0 |
| 20260505183025 | 9 | 161 | 0.0 | 4.8 | 0.00 | 1.07 | 0.48 | 78 | 1013.0 |
| 20260505181522 | 8 | 147 | 0.0 | 6.4 | 0.00 | 1.07 | 0.48 | 80 | 1013.0 |
| 20260505180015 | 8 | 148 | 0.0 | 4.8 | 0.00 | 1.07 | 0.48 | 81 | 1012.8 |
| 20260505174515 | 8 | 165 | 1.6 | 4.8 | 0.00 | 1.07 | 0.48 | 81 | 1012.6 |
| 20260505173006 | 8 | 189 | 0.0 | 3.2 | 0.00 | 1.07 | 0.48 | 83 | 1012.4 |
| 20260505171605 | 7 | 179 | 1.6 | 4.8 | 0.00 | 1.07 | 0.48 | 85 | 1012.2 |
| 20260505170059 | 7 | 133 | 0.0 | 3.2 | 0.00 | 1.07 | 0.48 | 86 | 1012.1 |
| 20260505164557 | 7 | 163 | 0.0 | 3.2 | 0.00 | 1.07 | 0.48 | 87 | 1012.1 |
| 20260505163051 | 6 | 120 | 0.0 | 4.8 | 0.00 | 1.07 | 0.48 | 89 | 1012.1 |
| 20260505161550 | 6 | 157 | 0.0 | 1.6 | 0.00 | 1.07 | 0.48 | 90 | 1011.8 |
| 20260505153044 | 6 | 207 | 0.0 | 6.4 | 0.00 | 1.07 | 0.48 | 92 | 1011.5 |
| 20260505151536 | 6 | 224 | 0.0 | 4.8 | 0.00 | 1.07 | 0.48 | 92 | 1011.5 |
| 20260505124508 | 6 | 259 | 0.0 | 1.6 | 0.00 | 1.07 | 0.48 | 95 | 1009.8 |
| 20260505123005 | 6 | 258 | 0.0 | 1.6 | 0.03 | 1.07 | 0.48 | 95 | 1009.7 |
| 20260505121504 | 6 | 145 | 0.0 | 0.0 | 0.03 | 1.07 | 0.48 | 95 | 1009.6 |
| 20260505120002 | 6 | 145 | 0.0 | 0.0 | 0.03 | 1.07 | 0.48 | 95 | 1009.5 |
| 20260505114600 | 6 | 169 | 0.0 | 3.2 | 0.03 | 1.07 | 0.48 | 95 | 1009.4 |
| 20260505113057 | 6 | 164 | 0.0 | 1.6 | 0.03 | 1.04 | 0.46 | 94 | 1009.5 |
| 20260505111556 | 6 | 165 | 0.0 | 1.6 | 0.03 | 1.04 | 0.46 | 95 | 1009.4 |
| 20260505110110 | 6 | 156 | 0.0 | 0.0 | 0.03 | 1.04 | 0.46 | 94 | 1009.4 |
| 20260505101546 | 6 | 266 | 0.0 | 1.6 | 0.25 | 1.02 | 0.43 | 94 | 1009.7 |
| 20260505100042 | 6 | 233 | 0.0 | 1.6 | 0.28 | 1.02 | 0.43 | 94 | 1009.7 |
| 20260505094539 | 6 | 228 | 0.0 | 0.0 | 0.25 | 0.99 | 0.41 | 94 | 1009.9 |
| 20260505093036 | 6 | 300 | 0.0 | 0.0 | 0.20 | 0.89 | 0.30 | 94 | 1010.2 |
| 20260505091533 | 6 | 287 | 0.0 | 1.6 | 0.08 | 0.76 | 0.18 | 93 | 1010.0 |
| 20260505090035 | 6 | 327 | 0.0 | 1.6 | 0.08 | 0.71 | 0.15 | 94 | 1010.1 |
| 20260505084529 | 6 | 343 | 0.0 | 1.6 | 0.05 | 0.71 | 0.13 | 93 | 1010.4 |
| 20260505083022 | 6 | 280 | 0.0 | 0.0 | 0.08 | 0.69 | 0.10 | 93 | 1010.4 |
| 20260505081523 | 6 | 280 | 0.0 | 0.0 | 0.08 | 0.69 | 0.10 | 93 | 1010.2 |
| 20260505080021 | 6 | 280 | 0.0 | 0.0 | 0.08 | 0.66 | 0.08 | 92 | 1010.2 |
| 20260505074514 | 6 | 280 | 0.0 | 0.0 | 0.10 | 0.64 | 0.05 | 92 | 1010.4 |
| 20260505073011 | 6 | 259 | 0.0 | 3.2 | 0.13 | 0.61 | 0.03 | 92 | 1010.7 |
| 20260505071508 | 6 | 98 | 0.0 | 1.6 | 0.18 | 0.61 | 0.03 | 91 | 1010.5 |
| 20260505070007 | 6 | 82 | 0.0 | 1.6 | 0.15 | 0.58 | 0.58 | 92 | 1010.4 |
| 20260505064502 | 6 | 82 | 0.0 | 1.6 | 0.10 | 0.53 | 0.53 | 92 | 1010.4 |
| 20260505063106 | 6 | 115 | 0.0 | 3.2 | 0.05 | 0.48 | 0.48 | 92 | 1010.2 |
| 20260505061600 | 6 | 124 | 0.0 | 4.8 | 0.03 | 0.43 | 0.43 | 91 | 1010.2 |